1514084401.12,10963,8.44,73012.8,-4.41,-5.15,-5.07,0,*5F
1514084402.37,10964,8.44,73012.5,-4.41,-5.07,-5.07,0,*5B
1514084403.64,10965,8.5,72980.8,-4.39,-5.15,-5.15,0,*55
1514084404.89,10966,8.44,72976.5,-4.41,-5.15,-5.15,0,*59
1514084406.14,10967,8.44,72966.0,-4.41,-5.19,-5.15,0,*54
1514084407.39,10968,8.44,72924.3,-4.41,-5.15,-5.07,0,*54
1514084408.65,10969,8.5,72952.5,-4.41,-5.03,-5.07,0,*52
1514084409.9,10970,8.44,72958.8,-4.41,-5.03,-5.07,0,*5A
1514084411.15,10971,8.44,73010.5,-4.41,-5.07,-5.15,0,*5C
1514084412.4,10972,8.44,73016.3,-4.41,-5.07,-5.15,0,*5F
1514084413.66,10973,8.44,73038.8,-4.43,-5.11,-5.11,0,*5F
1514084414.94,10974,8.44,73038.8,-4.43,-5.19,-5.11,0,*50
1514084416.2,10975,8.44,73054.5,-4.43,-5.19,-5.11,0,*51
1514084417.46,10976,8.44,73058.0,-4.41,-5.07,-5.07,0,*58
1514084418.71,10977,8.44,73086.8,-4.41,-5.07,-5.03,0,*5D
1514084419.99,10978,8.44,73036.0,-4.39,-5.07,-5.07,0,*59
1514084421.24,10979,8.44,73000.5,-4.41,-5.07,-5.07,0,*57
1514084422.5,10980,8.44,73006.0,-4.43,-5.11,-5.19,0,*5B
1514084423.77,10981,8.44,73000.0,-4.43,-5.11,-5.11,0,*52
1514084425.04,10982,8.44,72998.0,-4.43,-5.19,-5.11,0,*59
1514084426.31,10983,8.44,72994.5,-4.43,-5.11,-5.19,0,*58
1514084427.58,10984,8.44,72988.5,-4.43,-5.11,-5.19,0,*5F
1514084428.83,10985,8.44,73008.0,-4.41,-5.15,-5.07,0,*57
1514084430.08,10986,8.44,73018.0,-4.41,-5.15,-5.07,0,*54
1514084431.33,10987,8.44,73016.3,-4.41,-5.15,-5.07,0,*55
1514084432.59,10988,8.44,73016.8,-4.41,-5.15,-5.07,0,*5A
1514084433.84,10989,8.44,73018.8,-4.41,-5.15,-5.03,0,*5F
1514084435.09,10990,8.44,73022.3,-4.41,-5.07,-5.07,0,*50
1514084436.35,10991,8.44,73020.3,-4.41,-5.07,-5.07,0,*51
1514084437.6,10992,8.44,73000.0,-4.41,-5.07,-5.07,0,*52
1514084438.85,10993,8.44,72962.0,-4.41,-5.07,-5.15,0,*50
1514084440.1,10994,8.44,72930.0,-4.41,-5.15,-5.15,0,*54
1514084441.37,10995,8.44,72922.8,-4.39,-5.15,-5.03,0,*5D
1514084442.62,10996,8.44,72922.3,-4.41,-5.15,-5.03,0,*51
1514084443.88,10997,8.44,72934.8,-4.41,-5.15,-5.07,0,*54
1514084445.14,10998,8.5,72958.0,-4.43,-5.11,-5.11,0,*5A
1514084446.4,10999,8.44,72972.0,-4.41,-5.07,-5.07,0,*59
1514084447.65,11000,8.44,72974.8,-4.41,-5.07,-5.03,0,*55
1514084448.9,11001,8.44,72974.8,-4.41,-5.07,-5.03,0,*54
1514084450.15,11002,8.44,72992.0,-4.41,-5.07,-5.07,0,*53
1514084451.42,11003,8.44,72996.8,-4.43,-5.11,-5.11,0,*50
1514084452.67,11004,8.44,73034.5,-4.41,-5.07,-5.15,0,*56
1514084453.92,11005,8.44,73020.3,-4.41,-5.15,-5.07,0,*57
1514084455.18,11006,8.44,73028.8,-4.41,-5.07,-5.07,0,*57
1514084456.45,11007,8.44,73032.3,-4.43,-5.07,-5.11,0,*53
1514084457.72,11008,8.44,73046.5,-4.43,-5.11,-5.11,0,*5B
1514084458.99,11009,8.44,73028.3,-4.43,-5.19,-5.11,0,*52
1514084460.25,11010,8.44,73044.3,-4.43,-5.11,-5.11,0,*52
1514084461.53,11011,8.44,73056.5,-4.43,-5.19,-5.07,0,*5C
1514084462.8,11012,8.44,73052.8,-4.43,-5.07,-5.07,0,*50
1514084464.07,11013,8.44,73062.3,-4.43,-5.11,-5.11,0,*51
1514084465.34,11014,8.44,73076.8,-4.43,-5.19,-5.11,0,*5E
1514084466.6,11015,8.44,73082.3,-4.43,-5.11,-5.11,0,*57
1514084467.87,11016,8.44,73082.5,-4.43,-5.19,-5.11,0,*5C
1514084469.15,11017,8.44,73104.5,-4.39,-5.15,-5.07,0,*5B
1514084470.4,11018,8.44,73068.5,-4.41,-5.15,-5.03,0,*5F
1514084471.67,11019,8.44,73026.3,-4.43,-5.11,-5.19,0,*53
1514084472.92,11020,8.44,73050.8,-4.41,-5.15,-5.15,0,*53
1514084474.18,11021,8.44,73032.5,-4.43,-5.11,-5.19,0,*58
1514084475.43,11022,8.44,72992.8,-4.45,-5.11,-5.15,0,*51
1514084476.69,11023,8.44,73062.5,-4.43,-5.11,-5.11,0,*52
1514084477.95,11024,8.44,73078.5,-4.41,-5.07,-5.07,0,*57
1514084479.2,11025,8.44,73086.8,-4.41,-5.07,-5.07,0,*56
1514084480.45,11026,8.44,73114.8,-4.41,-5.07,-5.07,0,*55
1514084481.7,11027,8.44,73130.3,-4.41,-5.07,-5.15,0,*57
1514084482.95,11028,8.44,73104.8,-4.41,-5.15,-5.15,0,*5B
1514084484.21,11029,8.44,73118.5,-4.41,-5.15,-5.07,0,*59
1514084485.46,11030,8.44,73112.5,-4.41,-5.15,-5.07,0,*51
1514084486.71,11031,8.44,73110.3,-4.41,-5.15,-5.07,0,*50
1514084487.96,11032,8.44,73110.8,-4.41,-5.07,-5.15,0,*53
1514084489.21,11033,8.44,73114.8,-4.41,-5.07,-5.15,0,*52
1514084490.46,11034,8.44,73116.5,-4.41,-5.15,-5.03,0,*51
1514084491.72,11035,8.44,73126.0,-4.41,-5.07,-5.07,0,*57
1514084492.97,11036,8.44,73100.3,-4.45,-5.15,-5.15,0,*50
1514084494.24,11037,8.44,73050.8,-4.43,-5.19,-5.11,0,*5F
1514084495.51,11038,8.44,73008.3,-4.43,-5.19,-5.11,0,*50
1514084496.78,11039,8.44,72958.3,-4.43,-5.19,-5.19,0,*59
1514084498.05,11040,8.44,72936.8,-4.43,-5.19,-5.19,0,*57
1514084499.31,11041,8.44,72962.8,-4.43,-5.11,-5.19,0,*5E
1514084500.58,11042,8.44,72918.5,-4.43,-5.11,-5.19,0,*5D
1514084501.85,11043,8.44,72832.3,-4.43,-5.19,-5.19,0,*54
1514084503.1,11044,8.44,72758.5,-4.41,-5.23,-5.19,0,*58
1514084504.37,11045,8.44,72738.5,-4.43,-5.19,-5.11,0,*5A
1514084505.64,11046,8.44,72720.3,-4.43,-5.19,-5.11,0,*59
1514084506.91,11047,8.44,72748.8,-4.43,-5.11,-5.11,0,*50
1514084508.18,11048,8.44,72802.3,-4.43,-5.11,-5.07,0,*58
1514084509.44,11049,8.44,72910.5,-4.43,-5.11,-5.11,0,*5E
1514084510.71,11050,8.44,72946.8,-4.43,-5.11,-5.11,0,*56
1514084511.98,11051,8.44,72988.0,-4.43,-5.11,-5.19,0,*5F
1514084513.25,11052,8.44,73016.3,-4.43,-5.11,-5.07,0,*53
1514084514.51,11053,8.44,73066.5,-4.43,-5.11,-5.11,0,*55
1514084515.78,11054,8.44,73080.8,-4.43,-5.11,-5.19,0,*5A
1514084517.06,11055,8.44,73076.5,-4.43,-5.19,-5.07,0,*5C
1514084518.33,11056,8.44,73084.0,-4.43,-5.19,-5.11,0,*58
1514084519.6,11057,8.44,73062.8,-4.43,-5.19,-5.11,0,*59
1514084520.87,11058,8.44,73070.8,-4.43,-5.19,-5.07,0,*51
1514084522.12,11059,8.44,73030.8,-4.45,-5.15,-5.23,0,*5C
1514084523.39,11060,8.44,73014.3,-4.43,-5.19,-5.11,0,*5D
1514084524.65,11061,8.44,73028.8,-4.45,-5.23,-5.23,0,*52
1514084525.92,11062,8.44,73024.8,-4.43,-5.19,-5.11,0,*5F
1514084527.19,11063,8.44,73002.5,-4.43,-5.19,-5.11,0,*5E
1514084528.46,11064,8.44,72944.0,-4.43,-5.23,-5.11,0,*50
1514084529.71,11065,8.44,72926.5,-4.45,-5.15,-5.15,0,*56
1514084530.98,11066,8.44,72874.3,-4.43,-5.19,-5.11,0,*5B
1514084532.24,11067,8.44,72900.8,-4.43,-5.11,-5.11,0,*52
1514084533.51,11068,8.44,72908.8,-4.43,-5.11,-5.11,0,*5D
1514084534.78,11069,8.44,72922.3,-4.43,-5.19,-5.19,0,*5C
1514084536.05,11070,8.44,72970.3,-4.43,-5.19,-5.11,0,*5C
1514084537.32,11071,8.44,72992.3,-4.43,-5.19,-5.11,0,*5D
1514084538.59,11072,8.44,73010.0,-4.43,-5.19,-5.19,0,*56
1514084539.86,11073,8.44,73020.8,-4.43,-5.07,-5.19,0,*58
1514084541.13,11074,8.44,73036.0,-4.43,-5.19,-5.11,0,*58
1514084542.4,11075,8.44,73048.0,-4.43,-5.11,-5.11,0,*51
1514084543.67,11076,8.44,73038.3,-4.43,-5.11,-5.19,0,*5A
1514084544.93,11077,8.44,73066.8,-4.43,-5.11,-5.11,0,*53
1514084546.21,11078,8.44,73088.8,-4.43,-5.07,-5.19,0,*53
1514084547.47,11079,8.44,73100.5,-4.43,-5.11,-5.11,0,*5D
1514084548.74,11080,8.44,73122.0,-4.43,-5.11,-5.11,0,*5B
1514084550.01,11081,8.44,73128.8,-4.43,-5.19,-5.11,0,*52
1514084551.28,11082,8.44,73126.0,-4.43,-5.19,-5.19,0,*59
1514084552.52,11083,8.44,73112.8,-4.45,-5.11,-5.15,0,*5A
1514084553.79,11084,8.44,73112.8,-4.43,-5.11,-5.11,0,*5F
1514084555.06,11085,8.5,73096.0,-4.43,-5.11,-5.11,0,*5E
1514084556.33,11086,8.44,73074.0,-4.43,-5.11,-5.07,0,*5A
1514084557.58,11087,8.44,73082.5,-4.41,-5.15,-5.07,0,*5D
1514084558.85,11088,8.44,73084.0,-4.43,-5.19,-5.19,0,*53
1514084560.12,11089,8.44,73096.8,-4.43,-5.23,-5.11,0,*53
1514084561.39,11090,8.44,73108.3,-4.43,-5.11,-5.11,0,*5A
1514084562.66,11091,8.44,73110.0,-4.43,-5.19,-5.11,0,*53
1514084563.93,11092,8.44,73102.3,-4.43,-5.11,-5.11,0,*58
1514084565.19,11093,8.44,73084.5,-4.43,-5.11,-5.11,0,*59
1514084566.46,11094,8.44,73050.8,-4.43,-5.11,-5.19,0,*56
1514084567.72,11095,8.44,72998.5,-4.43,-5.11,-5.11,0,*5F
1514084568.99,11096,8.44,72968.3,-4.43,-5.19,-5.11,0,*54
1514084570.24,11097,8.5,72954.0,-4.45,-5.11,-5.15,0,*5F
1514084571.51,11098,8.44,72934.3,-4.43,-5.19,-5.11,0,*5A
1514084572.75,11099,8.44,72966.5,-4.45,-5.11,-5.19,0,*5D
1514084574.02,11100,8.44,72924.5,-4.43,-5.19,-5.19,0,*52
1514084575.29,11101,8.44,72970.0,-4.43,-5.11,-5.19,0,*5B
1514084576.56,11102,8.44,73026.3,-4.43,-5.19,-5.11,0,*58
1514084577.82,11103,8.44,73042.3,-4.43,-5.11,-5.11,0,*51
1514084579.09,11104,8.44,73116.8,-4.43,-5.11,-5.11,0,*56
1514084580.36,11105,8.44,73122.3,-4.43,-5.19,-5.11,0,*5F
1514084581.64,11106,8.5,73128.8,-4.43,-5.23,-5.07,0,*52
1514084582.89,11107,8.44,73114.8,-4.45,-5.19,-5.15,0,*5F
1514084584.15,11108,8.44,73122.0,-4.43,-5.11,-5.19,0,*52
1514084585.42,11109,8.44,73126.5,-4.43,-5.11,-5.11,0,*5B
1514084586.69,11110,8.44,73120.3,-4.43,-5.19,-5.11,0,*5B
1514084587.96,11111,8.44,73102.0,-4.43,-5.19,-5.11,0,*5A
1514084589.22,11112,8.44,73078.5,-4.43,-5.11,-5.11,0,*51
1514084590.49,11113,8.44,73050.8,-4.43,-5.11,-5.11,0,*50
1514084591.77,11114,8.44,73050.0,-4.43,-5.07,-5.07,0,*57
1514084593.04,11115,8.44,73038.8,-4.43,-5.11,-5.07,0,*51
1514084594.31,11116,8.44,73036.0,-4.43,-5.23,-5.19,0,*5C
1514084595.56,11117,8.44,73060.5,-4.45,-5.23,-5.11,0,*53
1514084596.83,11118,8.44,73076.5,-4.43,-5.19,-5.11,0,*53
1514084598.1,11119,8.44,73116.0,-4.43,-5.11,-5.11,0,*5A
1514084599.35,11120,8.44,73074.3,-4.45,-5.15,-5.23,0,*53
1514084600.62,11121,8.44,72970.5,-4.43,-5.11,-5.19,0,*59
1514084601.87,11122,8.44,72938.5,-4.45,-5.23,-5.15,0,*51
1514084603.14,11123,8.44,72916.8,-4.43,-5.19,-5.11,0,*5B
1514084604.41,11124,8.44,72918.8,-4.43,-5.19,-5.19,0,*54
1514084605.68,11125,8.44,72926.5,-4.43,-5.11,-5.07,0,*52
1514084606.95,11126,8.44,72928.3,-4.43,-5.19,-5.11,0,*5E
1514084608.22,11127,8.44,72926.0,-4.43,-5.19,-5.11,0,*5F
1514084609.48,11128,8.44,72924.0,-4.43,-5.11,-5.11,0,*58
1514084610.75,11129,8.44,72938.0,-4.43,-5.11,-5.11,0,*59
1514084612.02,11130,8.44,72976.0,-4.43,-5.19,-5.19,0,*51
1514084613.29,11131,8.44,73004.8,-4.43,-5.19,-5.11,0,*58
1514084614.56,11132,8.44,73026.0,-4.43,-5.19,-5.11,0,*5B
1514084615.83,11133,8.44,73038.8,-4.43,-5.11,-5.11,0,*52
1514084617.1,11134,8.44,73040.5,-4.43,-5.19,-5.11,0,*5D
1514084618.36,11135,8.44,73058.5,-4.43,-5.11,-5.11,0,*54
1514084619.63,11136,8.44,73062.8,-4.43,-5.11,-5.11,0,*57
1514084620.89,11137,8.44,73078.0,-4.43,-5.11,-5.11,0,*56
1514084622.16,11138,8.44,73082.0,-4.43,-5.11,-5.11,0,*59
1514084623.43,11139,8.44,73102.0,-4.43,-5.11,-5.11,0,*58
1514084624.69,11140,8.44,73102.5,-4.43,-5.11,-5.11,0,*56
1514084625.94,11141,8.44,73106.5,-4.41,-5.07,-5.15,0,*56
1514084627.21,11142,8.44,73106.3,-4.43,-5.19,-5.11,0,*5C
1514084628.46,11143,8.44,73104.5,-4.45,-5.27,-5.11,0,*56
1514084629.72,11144,8.44,73098.8,-4.43,-5.11,-5.11,0,*52
1514084630.99,11145,8.44,73120.3,-4.43,-5.11,-5.11,0,*53
1514084632.26,11146,8.44,73120.8,-4.43,-5.19,-5.11,0,*58
1514084633.51,11147,8.44,73128.3,-4.45,-5.15,-5.23,0,*52
1514084634.78,11148,8.44,73154.0,-4.43,-5.19,-5.11,0,*56
1514084636.05,11149,8.44,73150.3,-4.43,-5.11,-5.11,0,*5F
1514084637.3,11150,8.44,73150.5,-4.45,-5.11,-5.23,0,*50
1514084638.57,11151,8.44,73152.8,-4.43,-5.19,-5.11,0,*5E
1514084639.84,11152,8.44,73148.3,-4.43,-5.11,-5.07,0,*52
1514084641.1,11153,8.44,73144.3,-4.43,-5.11,-5.19,0,*5C
1514084642.37,11154,8.44,73140.8,-4.43,-5.11,-5.19,0,*5B
1514084643.64,11155,8.44,73112.8,-4.43,-5.11,-5.19,0,*5A
1514084644.9,11156,8.44,73070.0,-4.43,-5.11,-5.11,0,*51
1514084646.17,11157,8.44,73024.0,-4.43,-5.11,-5.11,0,*50
1514084647.44,11158,8.44,73012.3,-4.43,-5.11,-5.11,0,*5F
1514084648.7,11159,8.44,73024.5,-4.43,-5.11,-5.11,0,*5E
1514084649.97,11160,8.44,73070.3,-4.43,-5.19,-5.11,0,*5C
1514084651.24,11161,8.44,73070.0,-4.43,-5.11,-5.19,0,*5D
1514084652.51,11162,8.44,73060.0,-4.43,-5.11,-5.19,0,*5E
1514084653.77,11163,8.44,73028.5,-4.43,-5.11,-5.11,0,*57
1514084655.04,11164,8.44,72954.0,-4.43,-5.11,-5.19,0,*58
1514084656.29,11165,8.44,72896.0,-4.45,-5.23,-5.15,0,*52
1514084657.56,11166,8.44,72900.3,-4.43,-5.19,-5.19,0,*52
1514084658.83,11167,8.44,72916.5,-4.43,-5.11,-5.11,0,*53
1514084660.1,11168,8.44,72922.3,-4.43,-5.11,-5.19,0,*54
1514084661.36,11169,8.44,72958.0,-4.43,-5.11,-5.19,0,*55
1514084662.63,11170,8.44,72980.0,-4.43,-5.11,-5.19,0,*5D
1514084663.9,11171,8.44,72992.5,-4.43,-5.19,-5.11,0,*5C
1514084665.17,11172,8.44,73020.3,-4.43,-5.19,-5.11,0,*5F
1514084666.44,11173,8.44,73018.0,-4.43,-5.11,-5.19,0,*5E
1514084667.71,11174,8.44,72982.5,-4.43,-5.19,-5.19,0,*51
1514084668.97,11175,8.44,73006.3,-4.43,-5.11,-5.19,0,*58
1514084670.24,11176,8.44,72964.5,-4.43,-5.11,-5.19,0,*5B
1514084671.51,11177,8.44,72936.3,-4.43,-5.19,-5.11,0,*5A
1514084672.76,11178,8.44,72972.3,-4.45,-5.19,-5.07,0,*54
1514084674.03,11179,8.44,72958.3,-4.43,-5.11,-5.11,0,*5C
1514084675.29,11180,8.44,72964.5,-4.43,-5.11,-5.11,0,*5A
1514084676.56,11181,8.44,73028.5,-4.43,-5.19,-5.19,0,*5B
1514084677.83,11182,8.44,73056.3,-4.43,-5.19,-5.11,0,*50
1514084679.1,11183,8.44,73074.0,-4.43,-5.19,-5.11,0,*51
1514084680.35,11184,8.44,73046.0,-4.45,-5.11,-5.11,0,*58
1514084681.61,11185,8.44,73014.3,-4.43,-5.11,-5.11,0,*5F
1514084682.88,11186,8.44,73014.3,-4.43,-5.11,-5.23,0,*5D
1514084684.13,11187,8.44,73004.0,-4.45,-5.15,-5.15,0,*5B
1514084685.38,11188,8.44,72998.0,-4.45,-5.15,-5.15,0,*54
1514084686.63,11189,8.44,72982.5,-4.45,-5.15,-5.23,0,*50
1514084687.9,11190,8.44,72984.5,-4.43,-5.11,-5.11,0,*5B
1514084689.15,11191,8.44,72984.0,-4.45,-5.15,-5.15,0,*5C
1514084690.42,11192,8.44,72988.8,-4.43,-5.11,-5.11,0,*59
1514084691.68,11193,8.44,72994.0,-4.43,-5.19,-5.11,0,*50
1514084692.96,11194,8.44,72988.3,-4.43,-5.11,-5.07,0,*58
1514084694.22,11195,8.44,72976.0,-4.43,-5.11,-5.11,0,*5E
1514084695.49,11196,8.44,72954.5,-4.43,-5.11,-5.19,0,*55
1514084696.76,11197,8.44,72948.3,-4.43,-5.11,-5.19,0,*54
1514084698.01,11198,8.44,72930.5,-4.45,-5.23,-5.15,0,*50
1514084699.28,11199,8.44,72936.8,-4.43,-5.19,-5.11,0,*5A
1514084700.53,11200,8.44,72942.5,-4.45,-5.23,-5.15,0,*52
1514084701.8,11201,8.44,72958.3,-4.43,-5.15,-5.19,0,*5C
1514084703.07,11202,8.44,72988.8,-4.43,-5.07,-5.19,0,*5C
1514084704.34,11203,8.44,73030.3,-4.43,-5.11,-5.11,0,*52
1514084705.61,11204,8.44,73046.5,-4.43,-5.19,-5.07,0,*5A
1514084706.88,11205,8.44,73074.8,-4.43,-5.19,-5.11,0,*5C
1514084708.15,11206,8.44,73106.3,-4.43,-5.19,-5.11,0,*5F
1514084709.42,11207,8.44,73130.8,-4.43,-5.11,-5.11,0,*56
1514084710.68,11208,8.44,73152.5,-4.43,-5.11,-5.11,0,*59
1514084711.95,11209,8.44,73188.8,-4.43,-5.19,-5.11,0,*50
1514084713.2,11210,8.44,73180.3,-4.45,-5.23,-5.15,0,*53
1514084714.47,11211,8.44,73166.0,-4.43,-5.11,-5.23,0,*50
1514084715.75,11212,8.44,73152.0,-4.43,-5.19,-5.19,0,*52
1514084717.01,11213,8.44,73130.5,-4.43,-5.11,-5.19,0,*5B
1514084718.28,11214,8.5,73110.0,-4.43,-5.11,-5.11,0,*54
1514084719.53,11215,8.44,73066.3,-4.45,-5.15,-5.15,0,*53
1514084720.79,11216,8.44,72996.8,-4.43,-5.11,-5.11,0,*56
1514084722.07,11217,8.44,72902.3,-4.43,-5.07,-5.11,0,*50
1514084723.32,11218,8.44,72856.3,-4.45,-5.23,-5.11,0,*5F
1514084724.56,11219,8.44,72738.8,-4.45,-5.19,-5.15,0,*53
1514084725.81,11220,8.44,72708.5,-4.45,-5.23,-5.15,0,*50
1514084727.09,11221,8.44,72698.8,-4.43,-5.23,-5.15,0,*57
1514084728.36,11222,8.44,72736.3,-4.43,-5.19,-5.11,0,*59
1514084729.63,11223,8.44,72768.5,-4.43,-5.19,-5.11,0,*58
1514084730.89,11224,8.44,72860.5,-4.43,-5.11,-5.19,0,*5F
1514084732.14,11225,8.44,72902.8,-4.45,-5.19,-5.11,0,*58
1514084733.41,11226,8.44,72966.5,-4.43,-5.19,-5.19,0,*55
1514084734.68,11227,8.44,73012.8,-4.43,-5.23,-5.11,0,*55
1514084735.93,11228,8.44,73054.0,-4.45,-5.15,-5.15,0,*5D
1514084737.2,11229,8.44,73094.3,-4.43,-5.11,-5.07,0,*5D
1514084738.47,11230,8.44,73088.0,-4.43,-5.19,-5.11,0,*5A
1514084739.75,11231,8.44,73122.5,-4.43,-5.07,-5.15,0,*50
1514084741.02,11232,8.44,73124.3,-4.43,-5.19,-5.11,0,*58
1514084742.29,11233,8.44,73162.0,-4.43,-5.19,-5.19,0,*51
1514084743.56,11234,8.44,73164.0,-4.43,-5.19,-5.11,0,*5E
1514084744.83,11235,8.44,73176.8,-4.43,-5.23,-5.19,0,*5E
1514084746.1,11236,8.44,73170.0,-4.43,-5.11,-5.11,0,*54
1514084747.37,11237,8.5,73186.5,-4.43,-5.19,-5.11,0,*5D
1514084748.64,11238,8.44,73174.5,-4.43,-5.19,-5.19,0,*5A
1514084749.91,11239,8.44,73160.0,-4.43,-5.19,-5.19,0,*5B
1514084751.18,11240,8.44,73170.5,-4.43,-5.11,-5.07,0,*52
1514084752.43,11241,8.44,73162.8,-4.45,-5.15,-5.15,0,*52
1514084753.7,11242,8.5,73150.3,-4.43,-5.23,-5.11,0,*56
1514084754.97,11243,8.44,73148.8,-4.43,-5.19,-5.11,0,*5E
1514084756.24,11244,8.44,73140.3,-4.43,-5.19,-5.11,0,*59
1514084757.51,11245,8.44,73144.0,-4.43,-5.19,-5.11,0,*58
1514084758.78,11246,8.44,73134.0,-4.43,-5.11,-5.19,0,*5B
1514084760.03,11247,8.44,73124.5,-4.45,-5.23,-5.11,0,*55
1514084761.3,11248,8.44,73098.0,-4.43,-5.23,-5.19,0,*54
1514084762.57,11249,8.44,73120.5,-4.43,-5.11,-5.07,0,*5B
1514084763.82,11250,8.44,73102.3,-4.45,-5.15,-5.15,0,*52
1514084765.09,11251,8.44,73124.0,-4.43,-5.07,-5.11,0,*52
1514084766.34,11252,8.44,73122.8,-4.41,-5.07,-5.15,0,*57
1514084767.59,11253,8.44,73118.3,-4.45,-5.27,-5.15,0,*50
1514084768.86,11254,8.44,73108.5,-4.43,-5.19,-5.11,0,*58
1514084770.13,11255,8.44,73098.3,-4.43,-5.19,-5.11,0,*59
1514084771.38,11256,8.44,73102.3,-4.45,-5.23,-5.15,0,*51
1514084772.65,11257,8.44,73108.8,-4.43,-5.19,-5.11,0,*5B
1514084773.9,11258,8.44,73118.5,-4.45,-5.15,-5.15,0,*5A
1514084775.17,11259,8.44,73044.5,-4.43,-5.11,-5.11,0,*5D
1514084776.43,11260,8.44,73048.3,-4.43,-5.11,-5.11,0,*57
1514084777.7,11261,8.44,73036.3,-4.43,-5.11,-5.11,0,*56
1514084778.95,11262,8.44,73014.5,-4.45,-5.15,-5.15,0,*53
1514084780.21,11263,8.44,73008.8,-4.43,-5.11,-5.19,0,*5C
1514084781.48,11264,8.44,72948.8,-4.43,-5.11,-5.11,0,*53
1514084782.73,11265,8.44,72766.8,-4.45,-5.15,-5.15,0,*54
1514084784.0,11266,8.44,72708.5,-4.43,-5.11,-5.11,0,*51
1514084785.26,11267,8.44,72788.0,-4.43,-5.11,-5.11,0,*50
1514084786.51,11268,8.44,72868.3,-4.45,-5.15,-5.23,0,*5C
1514084787.78,11269,8.44,72862.5,-4.43,-5.11,-5.11,0,*5E
1514084789.03,11270,8.44,72848.8,-4.45,-5.15,-5.15,0,*50
1514084790.28,11271,8.44,72886.5,-4.45,-5.15,-5.23,0,*54
1514084791.53,11272,8.44,72900.0,-4.45,-5.19,-5.15,0,*5E
1514084792.78,11273,8.44,72936.3,-4.45,-5.15,-5.15,0,*53
1514084794.03,11274,8.44,72914.5,-4.45,-5.15,-5.15,0,*54
1514084795.3,11275,8.44,72888.5,-4.43,-5.19,-5.19,0,*53
1514084796.57,11276,8.44,72912.3,-4.43,-5.19,-5.19,0,*50
1514084797.83,11277,8.44,72928.5,-4.45,-5.23,-5.23,0,*57
1514084799.07,11278,8.44,72942.0,-4.45,-5.15,-5.15,0,*58
1514084800.32,11279,8.44,72942.8,-4.45,-5.15,-5.15,0,*59
1514084801.57,11280,8.44,72940.0,-4.41,-5.07,-5.15,0,*58
1514084802.84,11281,8.5,72964.8,-4.43,-5.11,-5.15,0,*5C
1514084804.11,11282,8.44,72990.3,-4.43,-5.11,-5.19,0,*53
1514084805.38,11283,8.44,73004.5,-4.43,-5.19,-5.11,0,*52
1514084806.65,11284,8.44,73006.3,-4.43,-5.19,-5.11,0,*55
1514084807.89,11285,8.5,73014.8,-4.45,-5.11,-5.11,0,*5A
1514084809.14,11286,8.44,73020.0,-4.45,-5.15,-5.15,0,*59
1514084810.39,11287,8.44,73026.3,-4.45,-5.15,-5.15,0,*58
1514084811.64,11288,8.44,73022.3,-4.45,-5.15,-5.11,0,*53
1514084812.9,11289,8.44,73024.0,-4.43,-5.11,-5.11,0,*50
1514084814.17,11290,8.44,73014.5,-4.43,-5.19,-5.19,0,*58
1514084815.42,11291,8.44,73028.0,-4.45,-5.15,-5.11,0,*5B
1514084816.67,11292,8.44,73042.3,-4.45,-5.11,-5.19,0,*54
1514084817.94,11293,8.44,73056.5,-4.43,-5.19,-5.19,0,*5B
1514084819.21,11294,8.44,73126.0,-4.43,-5.19,-5.23,0,*55
1514084820.46,11295,8.44,73142.0,-4.45,-5.15,-5.15,0,*5B
1514084821.73,11296,8.44,73142.8,-4.43,-5.19,-5.11,0,*56
1514084822.98,11297,8.44,73138.8,-4.45,-5.15,-5.15,0,*59
1514084824.23,11298,8.44,73020.0,-4.45,-5.15,-5.23,0,*53
1514084825.51,11299,8.44,73018.0,-4.43,-5.07,-5.11,0,*56
1514084826.78,11300,8.5,73030.0,-4.43,-5.19,-5.11,0,*58
1514084828.03,11301,8.5,73026.3,-4.45,-5.23,-5.15,0,*52
1514084829.3,11302,8.44,73022.0,-4.43,-5.11,-5.07,0,*55
1514084830.55,11303,8.44,73010.8,-4.45,-5.15,-5.15,0,*55
1514084831.8,11304,8.44,72998.8,-4.45,-5.15,-5.15,0,*52
1514084833.07,11305,8.44,72988.0,-4.43,-5.07,-5.19,0,*5A
1514084834.34,11306,8.44,72990.8,-4.43,-5.11,-5.11,0,*56
1514084835.6,11307,8.44,73012.3,-4.43,-5.11,-5.19,0,*5F
1514084836.87,11308,8.44,72984.5,-4.43,-5.19,-5.11,0,*50
1514084838.15,11309,8.44,73026.8,-4.43,-5.19,-5.07,0,*56
1514084839.42,11310,8.44,73028.5,-4.43,-5.19,-5.11,0,*59
1514084840.67,11311,8.44,73036.8,-4.45,-5.23,-5.15,0,*53
1514084841.94,11312,8.44,73020.3,-4.43,-5.19,-5.11,0,*5B
1514084843.21,11313,8.44,73004.8,-4.43,-5.07,-5.11,0,*55
1514084844.46,11314,8.44,72960.8,-4.45,-5.15,-5.27,0,*52
1514084845.71,11315,8.44,72852.0,-4.45,-5.15,-5.15,0,*52
1514084846.96,11316,8.44,72722.8,-4.45,-5.11,-5.27,0,*54
1514084848.21,11317,8.44,72832.0,-4.45,-5.15,-5.23,0,*55
1514084849.46,11318,8.44,72898.8,-4.45,-5.23,-5.23,0,*5F
1514084850.73,11319,8.5,72922.0,-4.43,-5.11,-5.19,0,*50
1514084851.98,11320,8.44,72966.0,-4.45,-5.23,-5.23,0,*54
1514084853.25,11321,8.44,72984.8,-4.43,-5.11,-5.11,0,*53
1514084854.52,11322,8.44,73010.3,-4.43,-5.19,-5.11,0,*58
1514084855.77,11323,8.44,73024.5,-4.45,-5.15,-5.23,0,*52
1514084857.02,11324,8.44,73042.5,-4.45,-5.15,-5.11,0,*54
1514084858.27,11325,8.44,73042.3,-4.45,-5.15,-5.15,0,*51
1514084859.54,11326,8.44,73046.8,-4.43,-5.11,-5.11,0,*54
1514084860.79,11327,8.44,73042.5,-4.45,-5.23,-5.15,0,*56
1514084862.05,11328,8.44,73036.8,-4.43,-5.11,-5.11,0,*5A
1514084863.31,11329,8.44,73040.0,-4.45,-5.23,-5.23,0,*5D
1514084864.56,11330,8.44,73048.0,-4.45,-5.23,-5.23,0,*55
1514084865.82,11331,8.44,73054.3,-4.45,-5.23,-5.23,0,*54
1514084867.06,11332,8.44,73052.5,-4.45,-5.27,-5.15,0,*56
1514084868.31,11333,8.44,73046.3,-4.45,-5.23,-5.15,0,*53
1514084869.56,11334,8.44,73056.8,-4.45,-5.23,-5.15,0,*54
1514084870.82,11335,8.44,73042.5,-4.45,-5.23,-5.23,0,*50
1514084872.06,11336,8.44,73046.3,-4.45,-5.11,-5.27,0,*56
1514084873.31,11337,8.44,73046.0,-4.45,-5.23,-5.15,0,*57
1514084874.56,11338,8.44,73092.8,-4.45,-5.19,-5.15,0,*51
1514084875.82,11339,8.44,73090.0,-4.45,-5.23,-5.23,0,*5C
1514084877.06,11340,8.44,73076.5,-4.45,-5.27,-5.15,0,*53
1514084878.34,11341,8.44,73064.0,-4.47,-5.15,-5.23,0,*54
1514084879.61,11342,8.5,73066.8,-4.43,-5.19,-5.23,0,*5F
1514084880.86,11343,8.44,73020.8,-4.45,-5.23,-5.23,0,*51
1514084882.13,11344,8.44,73080.0,-4.43,-5.19,-5.19,0,*50
1514084883.4,11345,8.44,73098.0,-4.43,-5.11,-5.11,0,*51
1514084884.65,11346,8.44,73080.3,-4.45,-5.15,-5.23,0,*51
1514084885.9,11347,8.44,73096.5,-4.45,-5.15,-5.15,0,*55
1514084887.15,11348,8.44,73088.8,-4.45,-5.15,-5.15,0,*5A
1514084888.42,11349,8.44,73110.5,-4.43,-5.19,-5.11,0,*55
1514084889.67,11350,8.44,73094.5,-4.45,-5.27,-5.23,0,*57
1514084890.95,11351,8.44,73094.5,-4.43,-5.19,-5.07,0,*5B
1514084892.2,11352,8.44,73134.3,-4.45,-5.23,-5.23,0,*51
1514084893.47,11353,8.44,73084.0,-4.43,-5.19,-5.19,0,*56
1514084894.72,11354,8.44,73088.8,-4.45,-5.15,-5.23,0,*52
1514084896.0,11355,8.44,73110.3,-4.43,-5.23,-5.11,0,*51
1514084897.25,11356,8.44,73114.5,-4.45,-5.23,-5.15,0,*50
1514084898.5,11357,8.44,73106.0,-4.45,-5.23,-5.23,0,*54
1514084899.77,11358,8.44,73072.5,-4.43,-5.11,-5.11,0,*5D
1514084901.02,11359,8.44,73032.3,-4.45,-5.15,-5.15,0,*5A
1514084902.27,11360,8.44,72996.8,-4.45,-5.23,-5.15,0,*55
1514084903.52,11361,8.44,72970.3,-4.45,-5.15,-5.23,0,*54
1514084904.77,11362,8.44,72936.0,-4.45,-5.15,-5.15,0,*52
1514084906.02,11363,8.44,72930.3,-4.45,-5.23,-5.15,0,*56
1514084907.29,11364,8.44,72932.3,-4.43,-5.11,-5.11,0,*52
1514084908.54,11365,8.44,72944.3,-4.45,-5.23,-5.15,0,*50
1514084909.81,11366,8.44,72950.0,-4.43,-5.19,-5.11,0,*58
1514084911.08,11367,8.5,72952.0,-4.43,-5.19,-5.11,0,*59
1514084912.33,11368,8.44,72954.0,-4.45,-5.23,-5.15,0,*5D
1514084913.58,11369,8.44,72974.3,-4.45,-5.23,-5.15,0,*5C
1514084914.83,11370,8.44,72990.0,-4.45,-5.23,-5.15,0,*54
1514084916.07,11371,8.44,73002.0,-4.45,-5.11,-5.15,0,*54
1514084917.32,11372,8.5,73016.0,-4.45,-5.15,-5.23,0,*56
1514084918.57,11373,8.44,73032.5,-4.45,-5.15,-5.15,0,*52
1514084919.84,11374,8.44,73040.0,-4.43,-5.11,-5.11,0,*53
1514084921.09,11375,8.44,73050.5,-4.45,-5.15,-5.23,0,*51
1514084922.37,11376,8.44,73058.0,-4.43,-5.19,-5.07,0,*5E
1514084923.62,11377,8.44,73052.3,-4.45,-5.23,-5.11,0,*57
1514084924.89,11378,8.5,73054.3,-4.43,-5.19,-5.11,0,*57
1514084926.14,11379,8.44,73034.3,-4.45,-5.23,-5.15,0,*5D
1514084927.4,11380,8.44,73032.0,-4.43,-5.11,-5.11,0,*58
1514084928.67,11381,8.44,73052.5,-4.43,-5.19,-5.11,0,*51
1514084929.94,11382,8.44,73078.5,-4.43,-5.19,-5.11,0,*52
1514084931.21,11383,8.44,73096.3,-4.43,-5.11,-5.19,0,*53
1514084932.46,11384,8.44,73098.5,-4.45,-5.27,-5.15,0,*5B